Weather History for Fort Worth NAS, TX

Change the Weather History Date:

Monday, July 8, 2013

  Actual Average Record
Temperature  
Mean Temperature 90 °F -  
Max Temperature 100 °F 92 °F 107 °F (2011)
Min Temperature 80 °F 73 °F 66 °F (2006)
Cooling Degree Days 24    
Growing Degree Days 40 (Base 50)    
Moisture  
Dew Point 66 °F    
Average Humidity 47    
Maximum Humidity 67    
Minimum Humidity 28    
Precipitation  
Precipitation 0.00 in - - ()
Sea Level Pressure  
Sea Level Pressure 30.02 in    
Wind  
Wind Speed 11 mph (SSE)    
Max Wind Speed 17 mph    
Max Gust Speed 25 mph    
Visibility 10 miles    
Events      
Averages and records for this station are not official NWS values.
T = Trace of Precipitation, MM = Missing Value Source: NWS Daily Summary

Daily Weather History Graph

Daily Weather History Graph

Search for Another Location

Airport:

Trip Planner

Search our weather history database for the weather conditions in past years. The results will help you decide how hot, cold, wet, or windy it might be!

Date:

Astronomy

Jul. 08, 2013 Rise Set
Actual Time 6:28 AM CDT 8:40 PM CDT
Civil Twilight 6:00 AM CDT 9:09 PM CDT
Nautical Twilight 5:25 AM CDT 9:43 PM CDT
Astronomical Twilight 4:48 AM CDT 10:20 PM CDT
Moon 6:54 AM CDT (7/8) 8:50 PM CDT (7/8)
Length of Visible Light 15h 08m
Length of Day
14h 12m
New Moon, 0% of the Moon is Illuminated
Jul 8
New Moon
Jul 15
First Quarter
Jul 22
Full
Jul 29
Last Quarter
Aug 6
New

Hourly Weather History & Observations

Time (CDT) Temp. Heat Index Dew Point Humidity Pressure Visibility Wind Dir Wind Speed Gust Speed Precip Events Conditions
12:52 AM 88.0 °F 89.6 °F 64.9 °F 46% 29.97 in 10.0 mi SSE 13.8 mph - N/A   Clear
1:52 AM 87.1 °F 89.2 °F 66.0 °F 49% 29.98 in 10.0 mi SSE 8.1 mph - N/A   Clear
2:52 AM 84.0 °F 86.3 °F 66.0 °F 55% 29.99 in 10.0 mi SE 5.8 mph - N/A   Clear
3:52 AM 84.0 °F 86.3 °F 66.0 °F 55% 29.99 in 10.0 mi SSE 9.2 mph - N/A   Clear
4:52 AM 82.0 °F 84.5 °F 66.9 °F 60% 30.01 in 10.0 mi SE 9.2 mph - N/A   Clear
5:52 AM 81.0 °F 83.3 °F 66.9 °F 62% 30.02 in 10.0 mi SSE 9.2 mph - N/A   Clear
5:59 AM 80.6 °F 83.2 °F 68.0 °F 65% 30.00 in 10.0 mi SSE 6.9 mph - N/A   Partly Cloudy
6:52 AM 80.1 °F 82.7 °F 68.0 °F 67% 30.04 in 10.0 mi SSE 9.2 mph - N/A   Scattered Clouds
7:52 AM 82.0 °F 85.5 °F 69.1 °F 65% 30.06 in 10.0 mi SSE 10.4 mph - N/A   Scattered Clouds
8:52 AM 84.9 °F 89.4 °F 70.0 °F 61% 30.07 in 10.0 mi SSE 12.7 mph - N/A   Scattered Clouds
9:52 AM 86.0 °F 90.1 °F 69.1 °F 57% 30.07 in 10.0 mi South 12.7 mph 20.7 mph N/A   Scattered Clouds
10:52 AM 90.0 °F 94.5 °F 69.1 °F 50% 30.07 in 10.0 mi SSE 10.4 mph - N/A   Scattered Clouds
11:52 AM 91.9 °F 95.9 °F 68.0 °F 45% 30.06 in 10.0 mi SSE 11.5 mph - N/A   Scattered Clouds
12:52 PM 95.0 °F 97.9 °F 66.0 °F 38% 30.05 in 10.0 mi SE 10.4 mph - N/A   Scattered Clouds
1:52 PM 96.1 °F 98.3 °F 64.0 °F 35% 30.04 in 10.0 mi SSE 12.7 mph 21.9 mph N/A   Scattered Clouds
2:52 PM 96.1 °F 98.3 °F 64.0 °F 35% 30.02 in 10.0 mi Variable 5.8 mph - N/A   Mostly Cloudy
3:52 PM 99.0 °F 100.5 °F 63.0 °F 30% 30.00 in 10.0 mi South 6.9 mph 17.3 mph N/A   Scattered Clouds
4:52 PM 99.0 °F 99.5 °F 61.0 °F 28% 29.99 in 10.0 mi SSW 5.8 mph - N/A   Scattered Clouds
5:52 PM 98.1 °F 101.2 °F 64.9 °F 34% 29.97 in 10.0 mi SE 16.1 mph 25.3 mph N/A   Scattered Clouds
6:52 PM 96.1 °F 98.8 °F 64.9 °F 36% 29.97 in 10.0 mi SSE 17.3 mph - N/A   Scattered Clouds
7:52 PM 93.9 °F 95.6 °F 64.0 °F 37% 29.98 in 10.0 mi SSE 15.0 mph - N/A   Partly Cloudy
8:52 PM 91.9 °F 93.3 °F 64.0 °F 39% 29.99 in 10.0 mi South 13.8 mph - N/A   Scattered Clouds
9:52 PM 90.0 °F 90.6 °F 63.0 °F 40% 30.02 in 10.0 mi South 16.1 mph 20.7 mph N/A   Clear
10:52 PM 88.0 °F 88.4 °F 62.1 °F 42% 30.05 in 10.0 mi North - - N/A   Clear
11:52 PM 86.0 °F 85.7 °F 60.1 °F 41% 30.06 in 10.0 mi South 10.4 mph - N/A   Clear